Location: Nantong Television Tower
(32.0188°N, 120.8512°E)
Time: 16:47:11
(UTC+08:00)

Vanguard 3 - Visible Passes

Search period start: 26 September 2016 00:00
Search period end: 06 October 2016 00:00
Orbit: 508 x 3266 km, 33.4° (Epoch: 25 September)

Date Brightness Start Highest point End Pass type
(mag) Time Alt. Az. Time Alt. Az. Time Alt. Az.
26 Sep 9.9 01:50:02 71° SE 01:50:02 71° SE 02:09:17 10° ENE visible
26 Sep 10.0 03:54:36 31° W 04:07:20 87° N 04:25:09 10° E visible
27 Sep 10.5 00:40:26 41° E 00:40:26 41° E 00:52:31 10° ENE visible
27 Sep 9.8 02:45:01 62° WSW 02:50:03 87° SSE 03:09:34 10° E visible
27 Sep 10.1 04:49:36 14° W 05:08:27 87° N 05:24:47 10° E visible
27 Sep 11.2 23:30:50 18° E 23:30:50 18° E 23:34:46 10° ENE visible
28 Sep 9.9 01:35:25 71° ESE 01:35:25 71° ESE 01:53:19 10° ENE visible
28 Sep 10.0 03:40:00 36° W 03:51:08 86° N 04:09:39 10° E visible
29 Sep 10.6 00:25:48 37° E 00:25:48 37° E 00:36:22 10° ENE visible
29 Sep 9.7 02:30:23 71° WSW 02:33:47 89° SSE 02:53:46 10° E visible
29 Sep 10.1 04:34:58 17° W 04:52:17 88° N 05:09:27 10° E visible
29 Sep 11.3 23:16:12 15° E 23:16:12 15° E 23:18:37 10° ENE visible
30 Sep 10.0 01:20:47 65° E 01:20:47 65° E 01:37:14 10° ENE visible
30 Sep 10.0 03:25:22 42° W 03:34:55 86° N 03:54:04 10° E visible
01 Oct 10.7 00:11:12 33° E 00:11:12 33° E 00:20:05 10° ENE visible
01 Oct 9.7 02:15:48 79° W 02:17:36 89° N 02:37:53 10° E visible
01 Oct 10.1 04:20:23 21° W 04:36:04 90° SSW 04:53:59 10° ESE visible
01 Oct 11.4 23:01:38 11° ENE 23:01:38 11° ENE 23:02:21 10° ENE visible
02 Oct 10.1 01:06:13 58° E 01:06:13 58° E 01:21:03 10° ENE visible
02 Oct 9.9 03:10:49 48° W 03:18:42 86° N 03:38:22 10° E visible
02 Oct 10.1 05:16:43 10° WNW 05:36:44 76° SSW 05:53:13 10° ESE visible
02 Oct 10.8 23:56:41 27° E 23:56:41 27° E 00:03:44 10° ENE visible
03 Oct 9.7 02:01:17 87° NNW 02:01:27 87° N 02:21:54 10° E visible
03 Oct 10.0 04:05:52 26° W 04:19:47 87° SSW 04:38:23 10° ESE visible
04 Oct 10.2 00:51:47 50° E 00:51:47 50° E 01:04:49 10° E visible
04 Oct 9.8 02:56:23 56° W 03:02:29 87° N 03:22:33 10° E visible
04 Oct 10.1 05:00:59 11° WNW 05:20:21 72° SSW 05:37:35 10° SE visible
04 Oct 11.0 23:42:20 22° ENE 23:42:20 22° ENE 23:47:20 10° ENE visible
05 Oct 9.7 01:46:56 80° ENE 01:46:56 80° ENE 02:05:49 10° E visible
05 Oct 10.0 03:51:32 32° W 04:03:27 84° SSW 04:22:38 10° ESE visible
